Regional Weather Roundup
Issued by NWS

Home | Current Version | Previous Version | Graphics & Text | Print | Product List | Glossary On
Versions: 1 2 3 4 5 6 7 8 9 10 11 12 13 14 15 16 17 18 19 20 21 22 23 24 25 26 27 28 29 30 31 32 33 34 35 36 37 38 39 40 41 42 43 44 45 46 47 48 49 50
000
ASUS45 KCYS 230610
RWRWY

WYOMING REGIONAL WEATHER ROUNDUP
NATIONAL WEATHER SERVICE CHEYENNE WY
1200 AM MDT SAT AUG 23 2014

NOTE:  "FAIR" INDICATES FEW OR NO CLOUDS BELOW 12,000 FEET
WITH NO SIGNIFICANT WEATHER AND/OR OBSTRUCTIONS TO VISIBILITY.

WYZ001-230700-
YELLOWSTONE NATIONAL PARK

CITY           SKY/WX    TMP DP  RH WIND       PRES   REMARKS
LK YELLOWSTONE   N/A     44  41  89 W3        30.16R
6HR MIN TEMP:  44; 6HR MAX TEMP:  50;

W YELLOWSTONE  NOT AVBL

$$
WYZ002>013-054>058-071-098>099-230700-
NORTHERN WYOMING

CITY           SKY/WX    TMP DP  RH WIND       PRES   REMARKS
JACKSON        CLOUDY    45  43  93 CALM      30.10R
CODY           CLOUDY    55  54  94 N6        30.03F
GREYBULL       RAIN      59  58  96 NW6       29.98R FOG
6HR MIN TEMP:  59; 6HR MAX TEMP:  71;

WORLAND        LGT RAIN  59  56  89 VRB5      29.98F
6HR MIN TEMP:  59; 6HR MAX TEMP:  73; 6HR PCP:  0.03;

SHERIDAN       CLOUDY    59  57  93 CALM      29.99F
6HR MIN TEMP:  58; 6HR MAX TEMP:  69; 6HR PCP:  0.29;

BUFFALO        CLOUDY    58  55  90 CALM      30.04S
6HR MIN TEMP:  56; 6HR MAX TEMP:  67; 6HR PCP:  0.25;

GILLETTE       CLOUDY    60  59  96 E13       29.99F
6HR MIN TEMP:  59; 6HR MAX TEMP:  63; 6HR PCP:  0.38;

HULETT         CLOUDY    61  59  94 MISG      30.03
NEWCASTLE      FAIR      68  54  60 MISG      30.00

$$
WYZ014>020-022>026-101>103-230700-
CENTRAL WYOMING

CITY           SKY/WX    TMP DP  RH WIND       PRES   REMARKS
BIG PINEY      CLOUDY    47  45  93 SW8       30.13S
6HR MIN TEMP:  47; 6HR MAX TEMP:  52;

PINEDALE       LGT RAIN  45  45 100 SE12      30.13F
DUBOIS         MOCLDY    46  41  81 CALM      30.10S
LANDER         RAIN      54  54 100 CALM      30.03S FOG
6HR MIN TEMP:  54; 6HR MAX TEMP:  66; 6HR PCP:  0.17;

RIVERTON       LGT RAIN  54  51  90 NW6       30.04S
6HR MIN TEMP:  54; 6HR MAX TEMP:  70; 6HR PCP:  0.11;

CASPER         MOCLDY    59  54  83 NE5       30.00F
6HR MIN TEMP:  58; 6HR MAX TEMP:  72; 6HR PCP: TRACE;

DOUGLAS        CLOUDY    64  55  72 SE12      29.99F
6HR MIN TEMP:  62; 6HR MAX TEMP:  67; 6HR PCP:  0.28;


$$
WYZ021-027>030-104>119-230700-
SOUTHERN WYOMING

CITY           SKY/WX    TMP DP  RH WIND       PRES   REMARKS
EVANSTON       CLOUDY    48  45  89 SE5       30.11F
6HR MIN TEMP:  48; 6HR MAX TEMP:  53; 6HR PCP:  0.39;

KEMMERER       CLOUDY    45  43  93 S5        30.15S
FORT BRIDGER   CLOUDY    48  48 100 E10       30.17F
ROCK SPRINGS   LGT RAIN  47  43  86 W14       30.16F
6HR MIN TEMP:  47; 6HR MAX TEMP:  60; 6HR PCP:  0.02;

DIXON          CLOUDY    57  50  77 W6        30.10S
RAWLINS        CLOUDY    58  50  75 CALM      30.07F
6HR MIN TEMP:  56; 6HR MAX TEMP:  70;

SARATOGA       CLOUDY    57  50  77 MISG      30.09F
LARAMIE        MOCLDY    54  51  90 S17       30.09F
6HR MIN TEMP:  53; 6HR MAX TEMP:  62;

CHEYENNE       LGT RAIN  57  55  93 S12       30.06F
6HR MIN TEMP:  57; 6HR MAX TEMP:  61; 6HR PCP:  0.16;

TORRINGTON     CLOUDY    61  60  97 E7        29.98F
6HR MIN TEMP:  61; 6HR MAX TEMP:  70; 6HR PCP:  0.05;

PINE BLUFFS    FAIR      57  55  94 SW3       30.04S

$$


USA.gov is the U.S. government's official web portal to all federal, state and local government web resources and services.